contact:dominique.lefevre@mio.osupytheas.fr, maurice.libes@osupytheas.fr, didier.mallarino@osupytheas.fr
Project:EMSO http://www.emso-fr.org/EMSO-France
Depth: 2436.0 m
Title:EMSO Ligure Ouest : Data MII capteur AQUADOPP
Date,Latitude,Longitude,X_East,Y_North,Z_Up,Amplitude_X,Amplitude_Y,Amplitude_Z,Batterie,SoundSpeed,Heading,Pitch,Roll,Pressure,TIS,Speed,Direction
, degrees North, degrees East, m.s-1, m.s-1,m.s-1, 1, 1, 1, Volt, m.s-1, degree, degree, degree, dbar, degree_C, m.s-1, degree
2019-06-18T00:04:05,42.805,6.029,0.016,0.02,-0.047,102.0,111.0,97.0,13.4,1505.2,322.7,-0.8,1.8,2470.054,13.3,0.025,38.7
2019-06-18T00:07:06,42.805,6.029,0.007,-0.022,-0.014,102.0,114.0,98.0,13.4,1505.3,324.1,-0.8,1.8,2470.098,13.31,0.023,162.4
2019-06-18T00:10:07,42.805,6.029,0.032,-0.008,0.013,101.0,110.0,99.0,13.4,1505.3,323.7,-0.7,1.9,2470.058,13.31,0.032,104.0
2019-06-18T00:13:08,42.805,6.029,0.028,-0.001,-0.019,101.0,113.0,97.0,13.4,1505.3,327.0,-0.7,1.8,2470.049,13.32,0.028,92.0
2019-06-18T00:16:09,42.805,6.029,0.022,0.006,-0.018,102.0,114.0,98.0,13.4,1505.3,325.0,-0.7,1.9,2470.036,13.32,0.022,74.7
2019-06-18T00:19:10,42.805,6.029,0.025,-0.019,-0.017,101.0,112.0,98.0,13.3,1505.3,325.1,-0.7,1.8,2470.024,13.32,0.031,127.2
2019-06-18T00:22:11,42.805,6.029,0.02,0.011,-0.013,101.0,114.0,98.0,13.3,1505.3,322.9,-0.7,1.8,2470.072,13.32,0.022,61.2
2019-06-18T00:25:12,42.805,6.029,0.03,0.0,-0.017,102.0,112.0,98.0,13.4,1505.3,324.0,-0.7,1.8,2470.033,13.32,0.03,90.0
2019-06-18T00:28:13,42.805,6.029,0.011,-0.003,-0.034,101.0,113.0,98.0,13.3,1505.3,324.3,-0.7,1.8,2470.023,13.32,0.011,105.3
2019-06-18T00:31:14,42.805,6.029,0.009,0.014,-0.005,103.0,111.0,99.0,13.3,1505.3,326.2,-0.7,1.8,2470.039,13.32,0.016,32.7
2019-06-18T00:34:15,42.805,6.029,0.017,0.004,-0.015,101.0,111.0,99.0,13.3,1505.3,323.3,-0.7,1.9,2470.067,13.32,0.017,76.8
2019-06-18T00:37:16,42.805,6.029,0.026,0.009,-0.011,103.0,116.0,98.0,13.3,1505.3,325.9,-0.7,1.8,2470.011,13.32,0.027,70.9
2019-06-18T00:40:17,42.805,6.029,0.02,-0.009,-0.041,100.0,114.0,98.0,13.3,1505.3,325.7,-0.8,1.8,2470.059,13.32,0.021,114.2
2019-06-18T00:43:18,42.805,6.029,0.031,-0.006,-0.037,101.0,113.0,97.0,13.4,1505.3,327.2,-0.7,1.8,2469.981,13.32,0.031,101.0
2019-06-18T00:46:19,42.805,6.029,0.008,0.004,-0.029,101.0,115.0,98.0,13.3,1505.3,323.5,-0.7,1.9,2470.018,13.32,0.008,63.4
2019-06-18T00:49:20,42.805,6.029,0.03,-0.017,-0.039,101.0,112.0,99.0,13.4,1505.3,326.0,-0.7,1.8,2470.002,13.32,0.034,119.5
2019-06-18T00:52:21,42.805,6.029,0.017,-0.008,-0.016,102.0,113.0,97.0,13.3,1505.3,327.4,-0.7,1.9,2470.023,13.32,0.018,115.2
2019-06-18T00:55:22,42.805,6.029,0.023,-0.001,-0.046,101.0,110.0,98.0,13.3,1505.3,325.3,-0.8,1.8,2469.982,13.32,0.023,92.5
2019-06-18T00:58:23,42.805,6.029,0.025,-0.005,-0.016,102.0,110.0,100.0,13.3,1505.3,325.0,-0.8,1.8,2470.024,13.32,0.025,101.3
2019-06-18T01:01:24,42.805,6.029,0.042,-0.002,-0.035,102.0,114.0,99.0,13.4,1505.3,326.0,-0.7,1.8,2469.992,13.32,0.042,92.7
2019-06-18T01:04:25,42.805,6.029,0.022,-0.001,-0.032,102.0,111.0,98.0,13.4,1505.3,323.9,-0.7,1.8,2470.008,13.32,0.022,92.6
2019-06-18T01:07:26,42.805,6.029,-0.011,0.022,-0.025,103.0,114.0,98.0,13.4,1505.3,326.1,-0.7,1.8,2470.004,13.32,0.024,333.4
2019-06-18T01:10:27,42.805,6.029,-0.007,0.0,-0.026,103.0,111.0,99.0,13.4,1505.3,326.7,-0.8,1.9,2470.005,13.32,0.007,270.0
2019-06-18T01:13:28,42.805,6.029,0.008,0.006,-0.024,102.0,114.0,99.0,13.4,1505.3,326.5,-0.7,1.8,2470.009,13.32,0.01,53.1
2019-06-18T01:16:29,42.805,6.029,0.026,-0.01,-0.042,102.0,110.0,99.0,13.4,1505.3,327.7,-0.7,1.8,2470.023,13.32,0.027,111.0
2019-06-18T01:19:30,42.805,6.029,-0.001,0.003,-0.011,103.0,115.0,98.0,13.3,1505.3,326.9,-0.8,1.8,2469.951,13.32,0.003,341.6
2019-06-18T01:22:31,42.805,6.029,0.024,0.011,0.0,101.0,113.0,98.0,13.3,1505.3,327.8,-0.8,1.8,2469.975,13.32,0.026,65.4
2019-06-18T01:25:32,42.805,6.029,0.036,0.002,-0.039,100.0,113.0,99.0,13.4,1505.3,326.2,-0.7,1.8,2469.949,13.32,0.036,86.8
2019-06-18T01:28:33,42.805,6.029,0.033,-0.015,-0.023,103.0,109.0,99.0,13.4,1505.3,327.0,-0.7,1.8,2470.016,13.32,0.036,114.4
2019-06-18T01:31:34,42.805,6.029,-0.001,0.005,-0.027,101.0,112.0,99.0,13.4,1505.3,327.0,-0.7,1.8,2469.978,13.32,0.005,348.7
2019-06-18T01:34:35,42.805,6.029,-0.015,-0.005,-0.047,101.0,114.0,97.0,13.4,1505.3,326.3,-0.7,1.9,2470.009,13.32,0.015,251.6
2019-06-18T01:37:36,42.805,6.029,0.0,0.006,-0.022,101.0,112.0,98.0,13.4,1505.3,327.0,-0.7,1.8,2470.006,13.32,0.006,0.0
2019-06-18T01:40:37,42.805,6.029,0.019,-0.014,-0.052,101.0,113.0,98.0,13.3,1505.3,326.1,-0.7,1.9,2469.989,13.32,0.023,126.4
2019-06-18T01:43:38,42.805,6.029,0.053,-0.015,0.006,100.0,114.0,98.0,13.3,1505.3,326.5,-0.7,1.8,2469.976,13.32,0.055,105.8
2019-06-18T01:46:39,42.805,6.029,-0.01,-0.003,-0.024,101.0,114.0,98.0,13.3,1505.3,327.6,-0.7,1.8,2469.968,13.32,0.01,253.3
2019-06-18T01:49:40,42.805,6.029,0.025,0.017,0.011,101.0,111.0,98.0,13.3,1505.3,324.3,-0.8,1.8,2470.005,13.32,0.03,55.8
2019-06-18T01:52:41,42.805,6.029,0.012,-0.006,-0.008,101.0,112.0,98.0,13.3,1505.3,326.9,-0.7,1.9,2469.919,13.32,0.013,116.6
2019-06-18T01:55:42,42.805,6.029,0.005,0.007,0.003,102.0,110.0,98.0,13.3,1505.3,323.7,-0.7,1.8,2469.976,13.32,0.008,35.5
2019-06-18T01:58:43,42.805,6.029,0.042,-0.019,-0.026,102.0,112.0,98.0,13.4,1505.3,325.1,-0.7,1.8,2469.958,13.32,0.046,114.3
2019-06-18T02:01:44,42.805,6.029,0.012,-0.006,-0.019,101.0,112.0,98.0,13.4,1505.3,326.3,-0.7,1.8,2469.974,13.32,0.013,116.6
2019-06-18T02:04:45,42.805,6.029,0.021,0.025,-0.014,101.0,112.0,98.0,13.4,1505.3,326.5,-0.8,1.9,2469.953,13.32,0.032,40.0
2019-06-18T02:07:46,42.805,6.029,0.021,0.015,-0.017,101.0,112.0,99.0,13.3,1505.3,322.9,-0.7,1.8,2469.983,13.32,0.025,54.5
2019-06-18T02:10:47,42.805,6.029,0.019,-0.023,-0.02,101.0,110.0,99.0,13.3,1505.3,325.9,-0.8,1.9,2469.948,13.32,0.029,140.4
2019-06-18T02:13:48,42.805,6.029,0.003,-0.004,-0.034,101.0,110.0,98.0,13.4,1505.3,327.3,-0.8,1.8,2469.95,13.32,0.005,143.1
2019-06-18T02:16:49,42.805,6.029,0.01,-0.004,0.006,103.0,109.0,97.0,13.4,1505.3,326.3,-0.7,1.9,2469.965,13.32,0.01,111.8
2019-06-18T02:19:50,42.805,6.029,0.014,-0.018,-0.037,100.0,111.0,99.0,13.4,1505.3,327.6,-0.8,1.8,2469.961,13.32,0.022,142.1
2019-06-18T02:22:51,42.805,6.029,0.041,0.007,0.005,104.0,109.0,100.0,13.4,1505.3,327.4,-0.7,1.8,2469.927,13.32,0.041,80.3
2019-06-18T02:25:52,42.805,6.029,0.01,-0.002,-0.045,101.0,112.0,97.0,13.4,1505.3,324.1,-0.7,1.8,2469.987,13.32,0.01,101.3
2019-06-18T02:28:53,42.805,6.029,0.005,-0.001,-0.033,101.0,111.0,98.0,13.4,1505.3,325.6,-0.7,1.8,2469.975,13.32,0.005,101.3
2019-06-18T02:31:54,42.805,6.029,0.014,-0.001,-0.018,103.0,111.0,99.0,13.3,1505.3,325.5,-0.7,1.9,2469.99,13.32,0.014,94.1
2019-06-18T02:34:55,42.805,6.029,0.036,0.024,0.036,102.0,111.0,100.0,13.4,1505.3,325.2,-0.7,1.9,2469.947,13.32,0.043,56.3
2019-06-18T02:37:56,42.805,6.029,0.002,0.012,-0.017,103.0,112.0,97.0,13.4,1505.3,323.5,-0.7,1.9,2469.992,13.32,0.012,9.5
2019-06-18T02:40:57,42.805,6.029,0.008,0.005,-0.018,102.0,111.0,98.0,13.4,1505.3,326.3,-0.7,1.8,2469.997,13.32,0.009,58.0
2019-06-18T02:43:58,42.805,6.029,0.002,0.0,-0.025,102.0,111.0,99.0,13.4,1505.3,324.6,-0.7,1.9,2469.934,13.32,0.002,90.0
2019-06-18T02:46:59,42.805,6.029,-0.011,-0.015,-0.014,101.0,111.0,98.0,13.4,1505.3,324.5,-0.7,1.8,2470.016,13.32,0.018,216.3
2019-06-18T02:50:00,42.805,6.029,0.027,0.008,-0.045,102.0,109.0,99.0,13.3,1505.3,325.1,-0.7,1.9,2469.957,13.32,0.028,73.5
2019-06-18T02:53:01,42.805,6.029,0.015,-0.01,0.036,101.0,109.0,98.0,13.4,1505.3,324.4,-0.7,1.9,2469.956,13.32,0.018,123.7
2019-06-18T02:56:02,42.805,6.029,0.026,-0.004,0.006,103.0,110.0,97.0,13.4,1505.3,326.5,-0.7,1.8,2469.948,13.32,0.026,98.7
2019-06-18T02:59:03,42.805,6.029,0.036,-0.016,-0.022,102.0,115.0,97.0,13.4,1505.3,326.5,-0.7,1.8,2469.994,13.32,0.039,114.0
2019-06-18T03:02:04,42.805,6.029,0.015,-0.026,0.021,101.0,108.0,97.0,13.4,1505.3,327.8,-0.7,1.8,2469.974,13.32,0.03,150.0
2019-06-18T03:05:05,42.805,6.029,0.01,-0.015,-0.006,102.0,111.0,98.0,13.4,1505.3,326.4,-0.7,1.9,2470.015,13.32,0.018,146.3
2019-06-18T03:08:06,42.805,6.029,0.022,0.009,0.005,102.0,110.0,98.0,13.3,1505.3,323.1,-0.8,1.8,2469.943,13.32,0.023,67.8
2019-06-18T03:11:07,42.805,6.029,0.018,0.003,-0.009,101.0,111.0,100.0,13.3,1505.3,325.3,-0.7,1.9,2470.016,13.32,0.018,80.5
2019-06-18T03:14:08,42.805,6.029,0.056,-0.013,0.006,103.0,108.0,99.0,13.3,1505.3,323.4,-0.7,1.8,2469.928,13.32,0.057,103.1
2019-06-18T03:17:09,42.805,6.029,0.013,0.006,-0.007,99.0,108.0,98.0,13.4,1505.3,325.4,-0.8,1.8,2469.95,13.32,0.014,65.2
2019-06-18T03:20:10,42.805,6.029,0.036,-0.03,-0.012,99.0,109.0,100.0,13.4,1505.3,324.8,-0.7,1.9,2469.982,13.32,0.046,129.8
2019-06-18T03:23:11,42.805,6.029,0.035,0.002,-0.028,101.0,109.0,98.0,13.4,1505.3,325.7,-0.7,1.9,2469.973,13.32,0.035,86.7
2019-06-18T03:26:12,42.805,6.029,0.009,0.006,-0.029,102.0,110.0,98.0,13.4,1505.3,324.8,-0.7,1.8,2469.954,13.32,0.01,56.3
2019-06-18T03:29:13,42.805,6.029,0.003,-0.008,-0.005,101.0,109.0,99.0,13.3,1505.3,323.9,-0.7,1.8,2469.889,13.32,0.008,159.4
2019-06-18T03:32:14,42.805,6.029,0.028,-0.007,-0.018,101.0,109.0,99.0,13.4,1505.3,323.8,-0.7,1.8,2469.978,13.32,0.028,104.0
2019-06-18T03:35:15,42.805,6.029,0.017,-0.007,-0.02,101.0,111.0,98.0,13.3,1505.3,325.0,-0.7,1.8,2469.898,13.32,0.018,112.4
2019-06-18T03:38:16,42.805,6.029,0.042,0.002,-0.004,101.0,110.0,98.0,13.4,1505.3,327.8,-0.7,1.8,2469.962,13.32,0.042,87.3
2019-06-18T03:41:17,42.805,6.029,0.041,0.001,-0.021,100.0,110.0,99.0,13.3,1505.3,326.7,-0.7,1.8,2469.993,13.32,0.041,88.6
2019-06-18T03:44:18,42.805,6.029,0.008,0.0,-0.024,102.0,109.0,98.0,13.4,1505.3,325.1,-0.7,1.8,2469.993,13.32,0.008,90.0
2019-06-18T03:47:19,42.805,6.029,0.024,0.008,-0.014,102.0,109.0,98.0,13.4,1505.3,323.4,-0.7,1.8,2469.962,13.32,0.025,71.6
2019-06-18T03:50:20,42.805,6.029,0.021,0.018,-0.034,102.0,109.0,98.0,13.4,1505.3,326.0,-0.7,1.9,2469.963,13.32,0.027,49.4
2019-06-18T03:53:21,42.805,6.029,0.027,-0.035,-0.016,100.0,109.0,99.0,13.4,1505.3,327.1,-0.7,1.8,2469.963,13.32,0.044,142.3
2019-06-18T03:56:22,42.805,6.029,0.027,-0.013,-0.053,101.0,107.0,98.0,13.4,1505.3,325.8,-0.7,1.8,2469.997,13.32,0.029,115.7
2019-06-18T03:59:23,42.805,6.029,0.008,0.015,0.023,103.0,110.0,100.0,13.4,1505.3,324.8,-0.8,1.9,2469.979,13.32,0.017,28.1
2019-06-18T04:02:24,42.805,6.029,0.012,-0.005,-0.029,103.0,110.0,98.0,13.3,1505.3,324.3,-0.8,1.8,2469.985,13.32,0.013,112.6
2019-06-18T04:05:25,42.805,6.029,0.039,-0.001,0.019,102.0,110.0,97.0,13.4,1505.3,324.6,-0.7,1.9,2470.007,13.32,0.039,91.5
2019-06-18T04:08:26,42.805,6.029,0.018,-0.014,0.004,101.0,111.0,97.0,13.4,1505.3,323.7,-0.8,1.9,2470.034,13.32,0.022,127.9
2019-06-18T04:11:27,42.805,6.029,0.041,-0.008,0.043,101.0,108.0,98.0,13.4,1505.3,325.8,-0.7,1.9,2469.997,13.32,0.041,101.0
2019-06-18T04:14:28,42.805,6.029,0.035,-0.019,-0.026,102.0,108.0,98.0,13.4,1505.3,325.1,-0.8,1.8,2470.012,13.32,0.039,118.5
2019-06-18T04:17:29,42.805,6.029,0.034,-0.018,0.004,101.0,112.0,99.0,13.4,1505.3,326.5,-0.8,1.8,2470.019,13.32,0.038,117.9
2019-06-18T04:20:30,42.805,6.029,0.017,-0.004,-0.015,101.0,112.0,100.0,13.4,1505.3,325.5,-0.7,1.9,2469.997,13.32,0.017,103.2
2019-06-18T04:23:31,42.805,6.029,0.007,-0.023,-0.043,102.0,110.0,99.0,13.4,1505.3,325.3,-0.7,1.8,2470.002,13.32,0.024,163.1
2019-06-18T04:26:32,42.805,6.029,0.022,0.0,-0.014,102.0,111.0,98.0,13.4,1505.3,327.9,-0.7,1.8,2470.008,13.32,0.022,90.0
2019-06-18T04:29:33,42.805,6.029,0.042,-0.014,-0.002,101.0,110.0,98.0,13.4,1505.3,324.9,-0.7,1.8,2470.007,13.32,0.044,108.4
2019-06-18T04:32:34,42.805,6.029,0.014,-0.021,-0.005,103.0,110.0,99.0,13.4,1505.3,328.1,-0.7,1.8,2470.014,13.32,0.025,146.3
2019-06-18T04:35:35,42.805,6.029,0.03,-0.013,-0.03,101.0,108.0,99.0,13.4,1505.3,323.5,-0.7,1.8,2470.009,13.32,0.032,113.4
2019-06-18T04:38:36,42.805,6.029,0.03,-0.001,0.018,102.0,107.0,99.0,13.4,1505.3,324.3,-0.7,1.8,2470.014,13.32,0.03,91.9
2019-06-18T04:41:37,42.805,6.029,0.03,0.004,0.035,103.0,108.0,98.0,13.4,1505.3,324.4,-0.7,1.9,2469.978,13.32,0.03,82.4
2019-06-18T04:44:38,42.805,6.029,0.041,0.005,0.002,102.0,108.0,99.0,13.4,1505.3,324.2,-0.7,1.8,2469.999,13.32,0.041,83.0
2019-06-18T04:47:39,42.805,6.029,0.011,0.0,0.019,101.0,108.0,101.0,13.4,1505.3,324.9,-0.7,1.8,2470.031,13.32,0.011,90.0
2019-06-18T04:50:40,42.805,6.029,0.038,-0.012,-0.007,102.0,110.0,98.0,13.3,1505.3,326.3,-0.8,1.8,2470.028,13.32,0.039,107.5
2019-06-18T04:53:41,42.805,6.029,0.027,-0.015,-0.005,101.0,109.0,98.0,13.3,1505.3,326.6,-0.7,1.8,2470.063,13.32,0.03,119.1
2019-06-18T04:56:42,42.805,6.029,0.049,0.005,0.013,103.0,108.0,99.0,13.4,1505.3,325.9,-0.8,1.8,2470.05,13.32,0.049,84.2
2019-06-18T04:59:43,42.805,6.029,0.01,-0.01,-0.039,102.0,106.0,99.0,13.3,1505.3,325.0,-0.8,1.9,2470.042,13.32,0.014,135.0
2019-06-18T05:02:44,42.805,6.029,0.031,-0.023,0.007,101.0,110.0,99.0,13.4,1505.3,326.4,-0.8,1.8,2470.031,13.32,0.038,126.6
2019-06-18T05:05:45,42.805,6.029,0.04,-0.016,0.004,103.0,107.0,98.0,13.4,1505.3,324.7,-0.7,1.8,2470.009,13.32,0.043,111.8
2019-06-18T05:08:46,42.805,6.029,0.015,-0.013,-0.014,102.0,108.0,99.0,13.4,1505.3,325.8,-0.7,1.8,2470.065,13.32,0.019,130.9
2019-06-18T05:11:47,42.805,6.029,0.005,0.014,0.018,102.0,106.0,99.0,13.4,1505.3,325.9,-0.7,1.9,2470.026,13.32,0.014,19.6
2019-06-18T05:14:48,42.805,6.029,0.008,-0.008,-0.028,102.0,107.0,98.0,13.3,1505.3,325.1,-0.7,1.8,2470.051,13.32,0.011,135.0
2019-06-18T05:17:49,42.805,6.029,0.025,-0.01,0.021,100.0,108.0,101.0,13.3,1505.3,328.2,-0.7,1.8,2470.038,13.32,0.026,111.8
2019-06-18T05:20:50,42.805,6.029,0.016,0.01,-0.021,102.0,107.0,99.0,13.4,1505.3,326.4,-0.7,1.8,2470.047,13.32,0.018,58.0
2019-06-18T05:23:51,42.805,6.029,0.012,0.009,-0.029,102.0,106.0,99.0,13.4,1505.3,328.0,-0.7,1.8,2470.026,13.32,0.015,53.1
2019-06-18T05:26:52,42.805,6.029,0.034,0.0,-0.006,102.0,108.0,100.0,13.4,1505.3,325.9,-0.7,1.8,2469.989,13.32,0.034,90.0
2019-06-18T05:29:53,42.805,6.029,0.032,0.0,-0.008,103.0,107.0,98.0,13.4,1505.3,326.7,-0.8,1.8,2470.025,13.32,0.032,90.0
2019-06-18T05:32:54,42.805,6.029,0.041,0.002,-0.002,102.0,107.0,98.0,13.4,1505.3,324.6,-0.8,1.9,2470.016,13.32,0.041,87.2
2019-06-18T05:35:55,42.805,6.029,0.014,-0.019,-0.02,101.0,109.0,98.0,13.3,1505.3,323.9,-0.7,1.8,2470.056,13.32,0.023,143.6
2019-06-18T05:38:56,42.805,6.029,0.029,-0.013,-0.031,102.0,107.0,98.0,13.4,1505.3,322.8,-0.7,1.8,2470.072,13.32,0.031,114.1
2019-06-18T05:41:57,42.805,6.029,0.005,0.006,0.005,101.0,105.0,100.0,13.3,1505.3,324.7,-0.8,1.8,2470.077,13.32,0.007,39.8
2019-06-18T05:44:58,42.805,6.029,0.024,-0.01,-0.001,104.0,108.0,98.0,13.4,1505.3,325.8,-0.7,1.9,2470.036,13.32,0.026,112.6
2019-06-18T05:47:59,42.805,6.029,0.029,0.005,0.008,103.0,110.0,99.0,13.4,1505.3,326.4,-0.7,1.9,2470.046,13.32,0.029,80.2
2019-06-18T05:51:00,42.805,6.029,0.027,-0.013,-0.035,101.0,108.0,99.0,13.4,1505.3,327.8,-0.7,1.9,2470.016,13.32,0.029,115.7
2019-06-18T05:54:01,42.805,6.029,0.012,0.0,-0.006,102.0,111.0,98.0,13.4,1505.3,325.9,-0.7,1.8,2470.088,13.32,0.012,90.0
2019-06-18T05:57:02,42.805,6.029,0.024,0.004,-0.001,102.0,108.0,98.0,13.4,1505.3,325.8,-0.7,1.9,2470.069,13.32,0.024,80.5
2019-06-18T06:00:03,42.805,6.029,0.014,0.016,0.016,101.0,110.0,99.0,13.4,1505.3,326.0,-0.8,1.9,2470.077,13.32,0.021,41.2
2019-06-18T06:03:04,42.805,6.029,-0.028,-0.005,-0.048,102.0,109.0,99.0,13.3,1505.3,325.7,-0.8,1.8,2470.064,13.32,0.028,259.9
2019-06-18T06:06:05,42.805,6.029,0.02,0.003,-0.001,101.0,109.0,98.0,13.4,1505.3,322.8,-0.7,1.9,2470.116,13.32,0.02,81.5
2019-06-18T06:09:06,42.805,6.029,0.015,-0.01,-0.009,101.0,110.0,99.0,13.3,1505.3,324.9,-0.7,1.8,2470.049,13.32,0.018,123.7
2019-06-18T06:12:07,42.805,6.029,0.016,-0.009,-0.041,101.0,109.0,100.0,13.4,1505.3,324.4,-0.8,1.8,2470.123,13.32,0.018,119.4
2019-06-18T06:15:08,42.805,6.029,0.025,0.009,0.005,103.0,110.0,99.0,13.4,1505.3,327.2,-0.7,1.8,2470.088,13.32,0.026,70.2
2019-06-18T06:18:09,42.805,6.029,-0.012,-0.005,-0.013,103.0,111.0,98.0,13.4,1505.3,327.9,-0.8,1.8,2470.113,13.32,0.013,247.4
2019-06-18T06:21:10,42.805,6.029,0.021,-0.002,-0.004,102.0,109.0,99.0,13.4,1505.3,325.7,-0.7,1.9,2470.064,13.32,0.021,95.4
2019-06-18T06:24:11,42.805,6.029,0.017,0.002,-0.009,102.0,109.0,100.0,13.4,1505.3,325.3,-0.7,1.8,2470.072,13.32,0.017,83.3
2019-06-18T06:27:12,42.805,6.029,0.019,-0.015,0.014,102.0,110.0,98.0,13.4,1505.3,324.7,-0.8,1.8,2470.079,13.32,0.024,128.3
2019-06-18T06:30:13,42.805,6.029,0.005,-0.007,-0.022,104.0,109.0,98.0,13.4,1505.3,325.6,-0.8,1.8,2470.093,13.32,0.008,144.5
2019-06-18T06:33:14,42.805,6.029,0.033,-0.005,0.0,101.0,109.0,99.0,13.4,1505.3,327.1,-0.7,1.8,2470.072,13.32,0.033,98.6
2019-06-18T06:36:15,42.805,6.029,0.043,0.008,0.0,103.0,110.0,98.0,13.3,1505.3,322.7,-0.7,1.8,2470.106,13.32,0.043,79.5
2019-06-18T06:39:16,42.805,6.029,0.01,-0.012,-0.023,101.0,110.0,99.0,13.4,1505.3,324.9,-0.7,1.9,2470.123,13.32,0.015,140.2
2019-06-18T06:42:17,42.805,6.029,0.037,-0.002,0.017,104.0,110.0,99.0,13.4,1505.3,324.8,-0.7,1.8,2470.078,13.32,0.037,93.1
2019-06-18T06:45:18,42.805,6.029,0.018,-0.007,-0.019,102.0,109.0,99.0,13.4,1505.3,325.6,-0.8,1.9,2470.105,13.32,0.019,111.2
2019-06-18T06:48:19,42.805,6.029,-0.004,0.005,-0.004,104.0,109.0,99.0,13.3,1505.3,328.3,-0.7,1.8,2470.098,13.32,0.006,321.3
2019-06-18T06:51:20,42.805,6.029,-0.007,-0.017,-0.018,102.0,109.0,98.0,13.3,1505.3,325.9,-0.7,1.8,2470.078,13.32,0.018,202.4
2019-06-18T06:54:21,42.805,6.029,0.012,-0.008,-0.007,103.0,110.0,97.0,13.4,1505.3,325.3,-0.7,1.8,2470.093,13.32,0.014,123.7
2019-06-18T06:57:22,42.805,6.029,0.048,0.007,-0.025,104.0,109.0,99.0,13.4,1505.3,328.1,-0.7,1.9,2470.047,13.32,0.048,81.7
2019-06-18T07:00:23,42.805,6.029,0.013,-0.03,-0.018,102.0,108.0,98.0,13.3,1505.3,323.4,-0.7,1.8,2470.078,13.32,0.032,156.6
2019-06-18T07:03:24,42.805,6.029,0.013,-0.011,-0.007,102.0,109.0,98.0,13.3,1505.3,326.8,-0.8,1.9,2470.093,13.32,0.017,130.2
2019-06-18T07:06:25,42.805,6.029,0.009,-0.007,-0.004,102.0,111.0,99.0,13.3,1505.3,324.5,-0.7,1.8,2470.051,13.32,0.011,127.9
2019-06-18T07:09:26,42.805,6.029,-0.027,-0.007,-0.037,102.0,111.0,99.0,13.3,1505.3,325.8,-0.8,1.8,2470.095,13.32,0.027,255.5
2019-06-18T07:12:27,42.805,6.029,0.027,-0.012,0.013,103.0,108.0,99.0,13.3,1505.3,325.5,-0.7,1.8,2470.064,13.32,0.029,114.0
2019-06-18T07:15:28,42.805,6.029,0.025,-0.017,-0.011,104.0,109.0,98.0,13.4,1505.3,325.3,-0.7,1.8,2470.097,13.32,0.03,124.2
2019-06-18T07:18:29,42.805,6.029,0.012,0.005,-0.014,101.0,110.0,98.0,13.4,1505.3,327.0,-0.7,1.8,2470.052,13.32,0.013,67.4
2019-06-18T07:21:30,42.805,6.029,0.0,0.003,-0.026,101.0,110.0,100.0,13.4,1505.3,323.0,-0.7,1.8,2470.117,13.32,0.003,0.0
2019-06-18T07:24:31,42.805,6.029,0.0,0.012,-0.006,102.0,112.0,99.0,13.4,1505.3,326.2,-0.7,1.8,2470.053,13.32,0.012,0.0
2019-06-18T07:27:32,42.805,6.029,0.038,-0.004,0.01,102.0,110.0,98.0,13.4,1505.3,327.0,-0.7,1.8,2470.073,13.32,0.038,96.0
2019-06-18T07:30:33,42.805,6.029,0.006,0.004,-0.023,101.0,110.0,99.0,13.3,1505.3,324.6,-0.7,1.8,2470.093,13.32,0.007,56.3
2019-06-18T07:33:34,42.805,6.029,-0.027,-0.004,-0.015,102.0,109.0,98.0,13.4,1505.3,326.8,-0.8,1.9,2470.074,13.32,0.027,261.6
2019-06-18T07:36:35,42.805,6.029,0.016,0.003,0.003,103.0,109.0,98.0,13.3,1505.3,327.3,-0.7,1.8,2470.087,13.32,0.016,79.4
2019-06-18T07:39:36,42.805,6.029,0.036,0.014,0.034,103.0,108.0,99.0,13.4,1505.3,322.6,-0.7,1.8,2470.055,13.32,0.038,68.8
2019-06-18T07:42:37,42.805,6.029,0.003,-0.003,0.0,103.0,110.0,99.0,13.4,1505.3,325.8,-0.8,1.8,2470.074,13.32,0.004,135.0
2019-06-18T07:45:38,42.805,6.029,0.045,-0.008,0.02,103.0,110.0,101.0,13.4,1505.3,326.6,-0.8,1.8,2470.108,13.32,0.045,100.1
2019-06-18T07:48:39,42.805,6.029,-0.004,-0.016,-0.035,104.0,108.0,98.0,13.4,1505.3,323.1,-0.7,1.8,2470.055,13.32,0.016,194.0
2019-06-18T07:51:40,42.805,6.029,0.032,0.005,-0.012,103.0,109.0,98.0,13.3,1505.3,327.0,-0.7,1.9,2470.1,13.32,0.032,81.1
2019-06-18T07:54:41,42.805,6.029,0.006,0.004,-0.025,102.0,109.0,100.0,13.3,1505.3,323.7,-0.7,1.8,2470.056,13.32,0.007,56.3
2019-06-18T07:57:42,42.805,6.029,0.025,0.008,-0.037,101.0,111.0,98.0,13.4,1505.3,326.9,-0.7,1.9,2470.113,13.32,0.026,72.3
2019-06-18T08:00:43,42.805,6.029,0.047,0.004,0.004,101.0,110.0,99.0,13.4,1505.3,328.4,-0.7,1.8,2470.056,13.32,0.047,85.1
2019-06-18T08:03:44,42.805,6.029,0.013,0.002,-0.04,101.0,110.0,98.0,13.4,1505.3,325.2,-0.7,1.8,2470.081,13.32,0.013,81.3
2019-06-18T08:06:45,42.805,6.029,0.017,-0.009,-0.013,102.0,109.0,98.0,13.4,1505.3,326.7,-0.7,1.8,2470.06,13.32,0.019,117.9
2019-06-18T08:09:46,42.805,6.029,0.033,-0.002,0.0,102.0,109.0,100.0,13.4,1505.3,323.2,-0.7,1.8,2470.094,13.32,0.033,93.5
2019-06-18T08:12:47,42.805,6.029,0.053,0.027,0.017,100.0,110.0,99.0,13.4,1505.3,325.2,-0.7,1.9,2470.125,13.32,0.059,63.0
2019-06-18T08:15:48,42.805,6.029,0.014,0.016,-0.041,101.0,109.0,98.0,13.3,1505.3,325.2,-0.7,1.8,2470.053,13.32,0.021,41.2
2019-06-18T08:18:49,42.805,6.029,0.019,-0.007,0.025,102.0,109.0,98.0,13.4,1505.3,323.5,-0.8,1.8,2470.043,13.32,0.02,110.2
2019-06-18T08:21:50,42.805,6.029,0.021,-0.005,-0.027,102.0,109.0,99.0,13.3,1505.3,324.0,-0.7,1.9,2470.086,13.32,0.021,103.4
2019-06-18T08:24:51,42.805,6.029,0.029,-0.014,-0.003,102.0,108.0,99.0,13.4,1505.3,327.5,-0.8,1.8,2470.097,13.32,0.032,115.8
2019-06-18T08:27:52,42.805,6.029,0.037,-0.009,0.04,102.0,112.0,98.0,13.4,1505.3,326.3,-0.8,1.9,2470.086,13.32,0.038,103.7
2019-06-18T08:30:53,42.805,6.029,-0.013,-0.02,-0.014,100.0,112.0,99.0,13.4,1505.3,326.9,-0.8,1.9,2470.108,13.32,0.023,213.0
2019-06-18T08:33:54,42.805,6.029,0.006,0.001,-0.01,101.0,110.0,99.0,13.4,1505.3,324.3,-0.8,1.8,2470.085,13.32,0.006,80.5
2019-06-18T08:36:55,42.805,6.029,0.009,0.002,-0.002,102.0,110.0,98.0,13.3,1505.3,324.6,-0.7,1.9,2470.054,13.32,0.009,77.5
2019-06-18T08:39:56,42.805,6.029,0.018,-0.011,0.0,101.0,110.0,100.0,13.4,1505.3,324.5,-0.7,1.8,2470.071,13.32,0.021,121.4
2019-06-18T08:42:57,42.805,6.029,0.021,-0.004,0.001,103.0,109.0,98.0,13.4,1505.3,324.8,-0.8,1.8,2470.056,13.32,0.021,100.8
2019-06-18T08:45:58,42.805,6.029,0.024,0.008,-0.036,102.0,110.0,99.0,13.4,1505.3,326.5,-0.7,1.8,2470.098,13.32,0.025,71.6
2019-06-18T08:48:59,42.805,6.029,0.005,0.007,-0.013,102.0,109.0,98.0,13.4,1505.3,324.9,-0.7,1.8,2470.066,13.32,0.008,35.5
2019-06-18T08:52:00,42.805,6.029,0.008,0.014,-0.002,103.0,110.0,99.0,13.3,1505.3,325.4,-0.7,1.8,2470.113,13.32,0.016,29.7
2019-06-18T08:55:01,42.805,6.029,0.012,-0.019,-0.028,102.0,109.0,98.0,13.3,1505.3,325.4,-0.7,1.8,2470.035,13.32,0.022,147.7
2019-06-18T08:58:02,42.805,6.029,0.044,-0.003,0.011,102.0,109.0,99.0,13.4,1505.3,327.9,-0.7,1.8,2470.113,13.32,0.044,93.9
2019-06-18T09:01:03,42.805,6.029,0.016,0.011,-0.012,103.0,108.0,100.0,13.3,1505.3,326.6,-0.7,1.8,2470.045,13.32,0.019,55.5
2019-06-18T09:04:04,42.805,6.029,0.022,-0.009,0.024,101.0,109.0,99.0,13.4,1505.3,325.9,-0.7,1.8,2470.06,13.32,0.023,112.2
2019-06-18T09:07:05,42.805,6.029,-0.009,-0.002,-0.014,102.0,108.0,100.0,13.4,1505.3,323.3,-0.7,1.9,2470.04,13.32,0.009,257.5
2019-06-18T09:10:06,42.805,6.029,0.014,0.013,-0.006,103.0,111.0,99.0,13.4,1505.3,324.5,-0.7,1.8,2470.034,13.32,0.019,47.1
2019-06-18T09:13:07,42.805,6.029,0.038,-0.016,0.013,102.0,110.0,99.0,13.4,1505.3,327.6,-0.7,1.9,2470.062,13.32,0.041,112.8
2019-06-18T09:16:08,42.805,6.029,-0.001,-0.001,-0.024,100.0,111.0,97.0,13.4,1505.3,325.0,-0.7,1.8,2470.079,13.32,0.001,225.0
2019-06-18T09:19:09,42.805,6.029,0.005,0.004,-0.018,102.0,110.0,98.0,13.4,1505.3,324.7,-0.7,1.8,2470.084,13.32,0.006,51.3
2019-06-18T09:22:10,42.805,6.029,0.005,-0.003,-0.036,102.0,109.0,99.0,13.4,1505.3,323.3,-0.7,1.9,2470.026,13.32,0.005,121.0
2019-06-18T09:25:11,42.805,6.029,-0.004,-0.003,-0.013,100.0,110.0,98.0,13.4,1505.3,324.8,-0.7,1.9,2470.067,13.32,0.005,233.1
2019-06-18T09:28:12,42.805,6.029,0.025,0.019,-0.016,100.0,111.0,100.0,13.4,1505.3,323.5,-0.7,1.9,2470.054,13.32,0.031,52.8
2019-06-18T09:31:13,42.805,6.029,-0.023,-0.004,-0.032,102.0,110.0,99.0,13.3,1505.3,326.3,-0.8,1.9,2470.055,13.32,0.023,260.1
2019-06-18T09:34:14,42.805,6.029,-0.002,-0.001,-0.012,102.0,110.0,99.0,13.3,1505.3,327.0,-0.8,1.8,2470.059,13.32,0.002,243.4
2019-06-18T09:37:15,42.805,6.029,-0.002,-0.001,-0.008,102.0,112.0,98.0,13.3,1505.3,326.4,-0.7,1.9,2470.06,13.32,0.002,243.4